Find Starlink 32452

NORAD ID: 61961 Int'l Des: 2024-210 Owner: SPXS Country: US Constellation: starlink operational
LEOCIRCULAR

現在のビュー

3D地球を読み込み中...

About Starlink 32452

Starlink 32452 (NORAD 61961) is a starlink constellation satellite (v2 mini) launched Nov 14, 2024 by SPXS of US. It operates in LEO, CIRCULAR orbit with a mass of 730.00 kg.

Starlink 32452について

説明を読み込み中...

次回通過

Passes for default location (London). Set your location on the main map for personalized predictions.

高度履歴

Loading altitude history...

軌道要素

1 61961U 24210C 26170.44224591 .00012429 00000-0 46023-3 0 9995
2 61961 43.0011 318.0950 0001211 269.6171 90.4542 15.27594468 90551
Epoch: Jun 19, 2026 • Age: 20 hours

現在のステータス

高度 482.1 km
速度 7.63 km/s
衛星直下点 11.06°N, 49.47°W
打ち上げ日 Nov 14, 2024
運用期間 1.5 years
タイプ internet

技術仕様

分類 Payload
質量 730.00 kg
乾燥質量 700.00 kg
総質量 730.00 kg
長さ 0.30 m
直径 4.10 m
スパン 29.00 m
形状 Box + pan
製造者 SPXS
バスタイプ Starlink V2M
フェーズステータス In Orbit
所有者/国 SPXS/US

Most Searched